METEOR 2-11 DEB, 42457

Orbit data source: Space-Track

METEOR 2-11 DEB, 42457 is space debris in LEO originally from a launch on Thu, 05 Jul 1984 UTC launched from the Plesetsk Missile And Space Complex (PKMTR). Debris objects in space refer to the collection of defunct objects orbiting the Earth. Examples of debris include non-operational satellites, rocket bodies, and fragments generated from explosions, collisions, or faulty payload assembly.

Loading next visibility...
Identifier
42457, 1984-072T
Orbit
LEO
Country
Flag of CISCIS
Related business
Manufacturer
Unknown
Mission
Spacecraft
Bus & Motor
Unknown
Mass
Unknown
Launch date (UTC)
1984-07-05 (41 years ago)
Launch vehicle
Unknown
Launch site
Plesetsk Missile And Space Complex (PKMTR)
Object type
Payload
Rocket body
Debris
Shape & HBR
Unknown shape, 0.1 m
Radar Cross Section
Small (<0.1 m²)

Expand to show TLE details & history
Last TLE update: 2 months ago

TLE from 2 months ago
0 METEOR 2-11 DEB
1 42457U 84072T   25256.26857039  .00001859  00000-0  14077-2 0  9997
2 42457  82.5312 249.6390 0021006 127.5920 232.7157 13.93375288442087
Epoch: 2025-09-13T06:26Z
TLE epoch observation values (Epoch: 2025-09-13T06:26:44.481Z)
Latitude
-0.00001°
Longitude
160.4493°
Altitude
929.046 km
Speed
7.383 km/s
True Right ascension
16h 38m 33s
True Declination
0° 00' 00"
Sunlit
Object was in daylight at epoch
Visualization orbit readout
Latitude
Unknown
Longitude
Unknown
Altitude
Unknown
Speed
Unknown
Apparent Right ascension
Unknown
Apparent Declination
Unknown
Sunlit
N/A
Visualization observer readout
Local Sidereal Time
19:19:15
Azimuth
Unknown
Elevation
Unknown
Doppler factor
Unknown
Orbital elements
Apogee altitude
929.284 km
Perigee altitude
898.648 km
Semi-major axis
7,292.103 km
Eccentricity
0.0021
Inclination
82.5312°
RAAN
249.639°
Arg. of periapsis
127.592°
True anomaly
232.52449°
Mean anomaly
232.7157°
Eccentric anomaly
232.62006°
Mean motion
3.48549 °/min
Orbital period
103.29 mins
BSTAR
0.0014077
Loading maneuver chart data...
Computing Atmospheric mass density...
Loading historical data...
Loading historical data...
Loading historical data...
Loading historical data...
Loading historical data...
Loading historical data...
Loading historical data...

Documentation

Showing up to 5 results
|